Tracking 19709 objects as of 17-Jun-2019
HD Live streaming from Space Station
objects crossing your sky now

DELTA 1 DEB

Track DELTA 1 DEB now!
10-day predictions


NORAD ID: 12230
Int'l Code: 1978-026BX
Perigee: 627.2 km
Apogee: 727.9 km
Inclination: 97.8 °
Period: 98.2 minutes
Semi major axis: 7048 km
RCS: 0.0615 m2 (small)
Launch date: March 5, 1978
Source: United States (US)
Launch site: AIR FORCE WESTERN TEST RANGE (AFWTR)

Note: This is SATELLITE DEBRIS
aabbcc
Your satellite tracking list
Your tracking list is empty




NASA's NSSDC Master Catalog

Two Line Element Set (TLE):
1 12230U 78026BX  19167.73998335 +.00000329 +00000-0 +64891-4 0  9998
2 12230 097.8410 182.0847 0071385 048.3321 312.3965 14.67082053003608
Source of the keplerian elements: AFSPC